Wind_Speed
6 3 7 13 11 12 13 10 11 22 22 23 25 23 22 19 18 18 20 25 22 20 23 25 27 31 33 36 39 40 41 40 38 34 34 35 34 36 36 38 43 45 46 48
9 9 13 14 16 15 13 11 14 22 23 21 20 20 19 16 18 14 13 14 16 20 24 25 28 33 35 36 40 41 41 40 34 32 32 32 33 35 39 42 44 45 47 48
12 19 10 13 16 13 14 15 19 21 22 18 16 15 12 13 12 13 14 15 18 21 24 26 32 36 36 37 38 38 36 33 33 32 32 32 34 36 39 41 42 43 42 43
10 7 9 12 16 15 11 21 17 16 17 9 15 4 17 13 14 16 19 18 19 23 26 31 34 36 36 34 31 30 31 31 31 32 33 34 34 35 38 39 41 44 45 44
11 9 13 12 18 17 19 18 18 14 14 13 14 9 19 14 19 21 21 20 23 27 30 32 34 33 28 26 27 30 32 33 33 32 32 32 35 40 41 43 45 47 49 49
11 14 16 18 18 17 17 14 17 16 14 8 16 10 17 16 19 19 21 23 26 29 33 33 31 28 26 28 31 34 36 36 33 31 31 36 40 45 48 49 52 53 55 54
12 15 15 14 13 15 11 12 6 6 9 10 16 12 15 17 16 17 20 23 27 30 31 31 28 28 28 31 34 35 36 36 34 34 39 46 47 50 53 55 57 58 58 59
7 10 13 13 11 9 12 10 8 8 9 10 15 9 14 15 18 18 20 23 26 29 28 26 27 30 33 35 40 41 37 37 38 41 44 48 52 56 58 60 60 61 61 60
12 11 14 15 10 8 12 10 12 12 14 10 12 14 18 19 19 20 24 28 29 28 28 28 31 35 36 39 42 41 39 40 43 46 49 53 57 59 60 64 65 65 65 63
12 10 10 10 10 9 10 14 14 15 16 14 14 15 12 21 23 28 30 31 30 26 27 30 32 35 37 41 39 39 41 44 48 51 54 59 62 63 67 65 65 65 62 59
9 8 9 8 7 9 15 16 23 24 22 22 17 16 22 25 30 33 32 31 26 23 28 31 35 34 35 43 41 41 45 47 51 55 59 60 63 68 64 64 61 58 56 52
10 7 8 10 12 14 17 20 21 21 20 22 27 18 27 28 32 34 33 29 25 27 33 35 37 37 40 42 41 44 47 50 54 57 58 62 68 61 63 59 56 54 51 48
11 11 12 15 18 18 23 27 29 30 29 27 25 18 29 33 34 33 30 28 30 33 35 35 38 35 36 37 41 45 48 52 54 55 60 65 61 63 59 57 52 51 48 46
12 12 13 12 19 24 31 32 33 31 30 26 22 29 30 31 31 31 30 31 33 32 33 37 33 33 36 40 44 47 51 53 55 58 62 61 62 58 57 54 52 50 50 46
13 17 20 24 28 31 33 35 33 32 32 32 31 29 29 30 29 30 31 33 31 34 36 34 31 34 38 43 46 50 51 52 56 60 62 62 59 57 55 55 56 51 44 39
18 22 25 31 34 36 37 37 34 31 31 30 30 27 32 31 32 32 31 31 35 35 34 32 33 37 41 45 47 50 51 53 57 60 60 58 56 55 57 58 51 46 40 33
26 29 32 32 40 41 39 32 33 33 30 33 30 32 31 32 32 31 32 35 36 37 33 33 35 40 42 44 47 50 51 54 58 59 56 54 52 56 56 54 49 42 33 28
34 35 38 40 40 38 32 35 33 32 29 32 33 31 29 30 31 32 35 35 34 30 31 34 38 41 44 46 49 50 52 55 57 54 51 49 53 53 54 52 45 35 24 15
38 40 39 34 29 26 32 35 32 32 28 28 29 29 29 30 32 31 33 33 29 29 31 35 40 43 45 47 49 50 51 54 53 49 47 45 48 47 53 49 39 31 19 13
31 32 32 29 34 28 22 30 30 29 27 27 27 28 29 28 26 31 32 28 28 31 34 38 42 44 45 47 48 48 50 52 49 43 41 44 42 41 44 44 38 33 25 21
29 30 30 24 26 26 31 29 28 27 27 26 25 24 26 27 28 27 27 27 29 32 36 39 43 43 44 46 46 48 51 47 42 39 36 41 38 36 38 34 32 30 27 24
27 28 28 29 29 30 30 28 27 27 27 29 26 26 26 25 23 21 24 27 30 33 37 40 41 41 43 45 46 48 47 41 35 34 34 36 34 32 33 28 25 24 23 21
29 28 29 31 29 30 27 25 23 22 23 24 24 23 25 20 18 21 25 28 32 36 39 40 40 41 43 45 46 48 42 33 34 31 35 31 30 30 27 24 22 20 19 18
32 30 31 32 29 25 20 19 18 18 19 19 19 20 15 16 20 23 27 31 34 37 40 40 40 41 43 45 49 44 37 32 31 27 35 26 26 26 22 21 20 19 18 17
31 28 27 23 20 16 15 16 15 14 14 16 15 14 15 18 21 26 30 33 36 38 39 39 38 40 43 46 44 38 34 30 27 26 32 24 23 22 19 19 19 18 17 17
17 22 22 19 19 16 15 17 16 14 12 12 13 14 17 21 24 28 31 34 36 37 37 37 36 40 42 45 40 34 31 32 24 26 29 22 21 19 18 18 17 16 16 15
Wind_Direction
200 208 221 229 272 263 284 277 283 290 306 309 312 315 315 316 308 297 289 288 291 295 292 296 304 313 313 313 319 322 323 322 323 319 315 314 309 305 304 302 302 301 301 300
215 230 253 260 269 290 287 289 293 303 301 305 302 307 302 295 296 291 289 293 299 288 289 296 308 312 312 316 320 321 319 320 321 321 317 311 309 308 307 306 304 303 304 303
185 235 263 271 277 284 291 293 297 296 306 305 309 321 311 299 299 306 312 310 297 292 294 304 309 312 315 319 320 318 317 320 325 322 319 312 309 307 307 308 312 313 315 314
221 240 263 267 268 284 307 304 301 303 320 294 316 281 303 310 314 321 316 314 306 304 304 304 310 313 318 320 317 321 322 325 322 317 314 315 319 320 319 319 317 314 311 310
247 252 261 258 280 303 293 287 293 299 313 338 327 346 280 324 324 320 319 319 311 307 306 310 312 314 321 324 329 327 326 324 321 322 325 324 320 320 318 315 313 311 309 308
249 258 261 272 288 294 291 288 302 307 330 341 329 353 300 315 319 320 322 319 314 315 315 314 314 317 326 328 328 328 324 322 323 323 323 322 320 318 315 313 309 309 308 306
249 260 270 281 299 309 314 316 330 321 310 299 322 328 287 316 321 320 320 321 319 317 315 316 316 320 323 327 325 320 320 322 318 311 313 314 315 314 313 311 308 308 306 304
226 282 278 288 291 282 320 342 343 334 322 307 321 317 293 326 328 324 320 321 318 314 310 314 315 319 321 322 323 318 319 317 317 315 314 316 315 315 314 313 310 310 309 306
241 243 270 284 303 320 316 334 326 322 327 343 294 321 330 327 326 326 322 320 321 315 313 312 311 316 320 318 318 320 318 318 316 319 321 319 317 316 316 314 312 313 311 310
239 246 276 291 310 312 321 317 345 334 331 336 310 330 308 323 330 330 326 320 318 312 311 313 313 317 321 317 318 321 321 323 323 323 322 321 321 319 317 316 315 316 315 313
247 253 283 293 297 293 327 328 330 325 325 321 322 312 300 318 325 325 321 317 312 306 311 312 316 317 316 317 319 319 325 325 324 324 324 323 320 317 318 320 322 321 319 320
252 258 269 275 294 301 310 318 318 315 319 318 321 323 311 313 319 320 321 317 314 308 312 317 318 313 318 317 319 322 326 325 326 326 323 321 320 318 322 325 324 322 320 318
255 263 284 303 314 317 312 321 320 320 319 323 320 316 300 309 316 317 314 308 311 315 316 316 317 319 319 321 323 326 326 327 325 324 322 323 319 322 324 323 322 321 320 320
265 283 297 283 271 294 310 317 319 318 316 313 313 308 309 310 312 310 307 307 311 312 315 318 318 318 321 324 326 326 327 326 324 323 325 323 325 326 323 322 321 318 315 313
282 291 298 300 301 304 306 309 311 310 310 312 313 312 309 308 304 303 304 307 311 317 319 321 320 319 322 326 327 327 325 324 325 328 327 327 326 324 325 322 317 315 315 314
277 284 292 298 299 302 303 305 305 305 307 310 312 314 312 306 306 308 308 310 319 322 320 323 321 322 325 326 326 324 324 327 329 329 328 329 328 329 326 323 321 317 313 310
276 283 291 292 296 300 301 299 305 306 311 308 306 305 305 305 308 309 310 315 320 320 319 321 321 323 324 325 324 325 328 330 331 331 332 331 334 333 332 331 328 319 309 304
276 281 287 290 295 296 290 301 301 304 307 301 303 304 305 304 306 306 310 317 320 321 320 321 320 321 323 325 325 328 332 332 333 334 334 338 340 340 343 345 343 338 326 319
273 278 283 285 284 285 300 303 307 305 308 300 299 300 300 302 305 315 315 319 321 319 319 319 320 323 325 325 327 332 332 333 335 338 339 343 346 347 351 356 3 8 22 48
273 276 278 279 286 290 287 295 301 303 308 300 298 297 298 300 301 300 315 316 317 317 318 319 321 324 325 327 332 333 332 336 339 339 343 347 348 354 354 4 17 31 46 60
273 274 277 277 280 289 299 302 304 306 299 300 300 298 297 299 304 311 309 314 316 317 320 323 324 327 327 331 335 333 335 338 339 343 346 350 352 356 357 5 20 35 43 51
278 281 286 289 293 296 301 302 302 298 293 294 296 296 298 304 312 310 311 315 318 322 324 325 326 327 331 337 334 335 338 341 342 346 350 351 355 357 0 9 21 31 40 47
283 285 288 292 294 299 305 305 304 302 299 298 297 299 304 312 311 310 314 317 322 323 324 327 329 332 338 337 336 339 343 344 347 348 353 353 357 360 6 15 23 33 42 47
285 288 290 292 296 302 305 302 305 303 302 302 303 309 312 312 313 311 315 320 322 325 327 329 333 337 340 338 341 344 348 344 348 353 354 355 2 4 13 18 22 33 40 49
279 284 281 286 292 306 304 307 309 310 309 310 309 309 313 312 313 316 318 320 323 327 329 331 335 340 341 341 345 346 355 353 352 358 356 357 4 7 15 21 27 36 47 58
266 269 272 290 300 302 298 303 305 306 308 305 307 311 312 313 314 316 319 322 326 328 330 333 339 343 342 345 346 346 352 351 354 360 358 360 4 5 13 24 30 42 51 64
Height
5930 5935 5938 5935 5935 5936 5935 5936 5935 5930 5929 5927 5925 5923 5920 5918 5916 5915 5912 5909 5907 5904 5903 5900 5896 5892 5887 5881 5876 5870 5865 5860 5855 5849 5844 5839 5835 5830 5825 5819 5814 5808 5802 5796
5931 5935 5932 5932 5933 5933 5933 5934 5933 5928 5925 5924 5922 5920 5917 5915 5912 5910 5908 5906 5903 5902 5899 5895 5891 5887 5882 5876 5871 5865 5859 5853 5848 5843 5838 5833 5828 5822 5815 5809 5804 5797 5790 5784
5931 5930 5930 5930 5931 5932 5930 5930 5927 5926 5922 5921 5919 5916 5913 5911 5909 5906 5904 5902 5901 5898 5894 5890 5886 5880 5875 5870 5865 5858 5852 5847 5842 5836 5832 5826 5820 5815 5809 5802 5795 5788 5783 5776
5927 5928 5928 5929 5929 5931 5932 5925 5923 5922 5920 5922 5917 5921 5912 5909 5906 5903 5900 5899 5896 5892 5889 5886 5880 5874 5869 5864 5858 5853 5847 5842 5837 5832 5826 5820 5815 5809 5802 5795 5789 5782 5775 5768
5925 5926 5927 5929 5927 5926 5925 5922 5921 5919 5918 5917 5913 5915 5909 5906 5902 5899 5897 5895 5892 5888 5883 5878 5873 5868 5865 5859 5853 5847 5842 5837 5832 5826 5821 5815 5810 5802 5795 5788 5781 5773 5765 5757
5923 5924 5926 5925 5925 5923 5921 5920 5919 5916 5915 5918 5912 5912 5907 5905 5901 5897 5894 5891 5886 5882 5876 5872 5868 5864 5860 5854 5848 5843 5837 5832 5826 5821 5815 5809 5802 5795 5787 5779 5770 5761 5752 5743
5923 5923 5923 5923 5923 5920 5919 5918 5922 5921 5918 5916 5909 5907 5904 5900 5898 5895 5891 5887 5881 5876 5872 5868 5863 5860 5855 5850 5844 5839 5833 5827 5821 5815 5808 5801 5793 5785 5776 5767 5757 5747 5738 5729
5924 5921 5920 5920 5920 5920 5917 5916 5916 5915 5914 5913 5905 5905 5901 5898 5895 5891 5888 5884 5879 5873 5868 5863 5859 5854 5849 5843 5837 5831 5825 5820 5814 5807 5800 5791 5782 5772 5762 5752 5742 5732 5723 5715
5920 5921 5918 5917 5917 5917 5915 5914 5913 5911 5909 5909 5906 5902 5899 5894 5892 5888 5883 5879 5873 5868 5863 5858 5853 5848 5843 5837 5830 5824 5819 5813 5806 5798 5789 5780 5770 5760 5750 5738 5727 5717 5707 5699
5916 5918 5916 5915 5914 5914 5913 5912 5913 5913 5908 5905 5906 5899 5899 5891 5887 5883 5878 5873 5868 5863 5858 5853 5849 5843 5837 5830 5824 5818 5812 5805 5796 5787 5778 5767 5756 5746 5735 5724 5713 5703 5692 5683
5913 5914 5915 5913 5913 5914 5912 5911 5906 5905 5903 5901 5899 5898 5889 5886 5881 5877 5873 5868 5863 5858 5854 5849 5842 5837 5831 5824 5818 5812 5804 5796 5786 5777 5766 5756 5745 5734 5722 5711 5700 5689 5679 5670
5910 5911 5913 5913 5910 5909 5908 5907 5905 5903 5902 5898 5893 5892 5884 5880 5876 5871 5866 5861 5857 5853 5848 5843 5836 5830 5824 5817 5811 5804 5796 5786 5776 5766 5757 5746 5733 5721 5711 5699 5688 5678 5669 5660
5908 5908 5909 5907 5907 5904 5903 5901 5899 5896 5893 5891 5888 5888 5878 5874 5869 5865 5861 5856 5853 5848 5842 5837 5831 5824 5818 5811 5804 5796 5788 5778 5769 5759 5747 5734 5722 5710 5699 5688 5677 5668 5659 5651
5904 5905 5906 5908 5905 5904 5899 5896 5894 5891 5888 5886 5884 5878 5874 5868 5864 5859 5856 5852 5848 5843 5837 5832 5825 5818 5812 5805 5798 5789 5780 5771 5761 5751 5738 5724 5712 5700 5688 5677 5667 5657 5648 5640
5901 5900 5901 5899 5898 5897 5895 5892 5889 5886 5882 5879 5876 5872 5867 5863 5859 5855 5851 5847 5842 5837 5831 5825 5819 5813 5806 5799 5791 5782 5773 5764 5752 5740 5727 5714 5702 5689 5677 5666 5654 5644 5636 5629
5896 5895 5896 5894 5892 5890 5888 5885 5882 5879 5876 5873 5869 5866 5860 5855 5852 5848 5844 5840 5836 5830 5825 5819 5813 5807 5800 5792 5784 5775 5766 5755 5744 5731 5719 5706 5693 5680 5667 5653 5641 5631 5624 5618
5891 5890 5890 5890 5884 5883 5882 5878 5875 5873 5871 5865 5862 5859 5854 5849 5845 5842 5838 5834 5830 5824 5819 5813 5807 5801 5795 5787 5778 5769 5759 5749 5736 5723 5711 5699 5686 5672 5657 5642 5628 5617 5609 5606
5885 5885 5883 5882 5879 5877 5873 5871 5869 5866 5865 5859 5855 5851 5848 5843 5840 5837 5833 5829 5824 5819 5813 5808 5802 5796 5789 5781 5772 5762 5752 5741 5729 5717 5705 5693 5681 5667 5652 5635 5619 5606 5598 5597
5879 5878 5876 5876 5874 5873 5869 5863 5863 5859 5859 5853 5849 5845 5842 5838 5834 5831 5828 5823 5819 5814 5809 5803 5797 5790 5783 5774 5765 5755 5745 5734 5722 5711 5700 5689 5677 5665 5651 5635 5620 5607 5600 5599
5871 5870 5870 5869 5866 5866 5866 5860 5857 5854 5851 5846 5843 5840 5836 5834 5832 5827 5823 5818 5814 5809 5803 5798 5792 5784 5776 5767 5758 5749 5739 5728 5716 5706 5697 5687 5677 5666 5655 5642 5629 5618 5612 5608
5863 5863 5863 5863 5859 5859 5854 5852 5850 5848 5846 5840 5837 5834 5831 5829 5826 5822 5818 5814 5810 5805 5799 5793 5786 5778 5770 5762 5753 5743 5732 5722 5712 5703 5694 5685 5676 5667 5658 5649 5639 5630 5624 5619
5857 5856 5854 5853 5852 5851 5848 5846 5844 5840 5836 5833 5831 5828 5825 5823 5821 5817 5814 5810 5805 5800 5794 5788 5781 5773 5765 5756 5747 5737 5726 5717 5708 5700 5693 5684 5677 5668 5661 5653 5645 5638 5632 5628
5848 5849 5848 5847 5846 5842 5841 5838 5836 5833 5830 5828 5825 5823 5820 5819 5816 5813 5809 5806 5801 5795 5790 5782 5775 5768 5760 5751 5741 5731 5721 5713 5706 5699 5692 5684 5677 5670 5663 5657 5650 5644 5639 5636
5839 5839 5839 5837 5837 5836 5833 5832 5829 5827 5826 5823 5821 5819 5817 5815 5813 5809 5806 5802 5797 5791 5784 5778 5770 5763 5755 5746 5736 5726 5718 5710 5704 5698 5692 5685 5678 5672 5666 5661 5655 5650 5645 5642
5832 5831 5830 5830 5830 5830 5828 5826 5825 5823 5821 5820 5818 5816 5815 5813 5810 5806 5802 5797 5792 5786 5779 5773 5766 5759 5751 5741 5732 5724 5716 5709 5703 5698 5692 5685 5680 5675 5670 5665 5660 5655 5651 5648
5826 5824 5823 5825 5824 5824 5823 5821 5820 5819 5818 5816 5815 5814 5812 5809 5806 5802 5797 5792 5787 5781 5775 5768 5762 5755 5746 5738 5730 5723 5715 5709 5703 5698 5692 5686 5681 5677 5673 5668 5664 5660 5657 5654